contact:dominique.lefevre@mio.osupytheas.fr, maurice.libes@osupytheas.fr, didier.mallarino@osupytheas.fr
Project:EMSO http://www.emso-fr.org/EMSO-France
Depth: 2436.0 m
Title:EMSO Ligure Ouest : Data MII capteur MICROCAT
DateTime_Computer,Latitude,Longitude,Temperature,Conductivity,Pressure,DateTime_Instrument
DateTime_Computer,Latitude,Longitude,degC,S m-1,dbar,DateTime_Instrument
2023-12-23T00:00:52Z,42.805,6.029,13.3043,4.60144,2470.553,2023-12-23T02:03:22Z
2023-12-23T00:03:55Z,42.805,6.029,13.3039,4.60140,2470.577,2023-12-23T02:06:25Z
2023-12-23T00:06:58Z,42.805,6.029,13.3046,4.60137,2470.637,2023-12-23T02:09:28Z
2023-12-23T00:10:01Z,42.805,6.029,13.3048,4.60164,2470.577,2023-12-23T02:12:31Z
2023-12-23T00:13:04Z,42.805,6.029,13.3061,4.60160,2470.624,2023-12-23T02:15:35Z
2023-12-23T00:16:07Z,42.805,6.029,13.3061,4.60170,2470.6,2023-12-23T02:18:38Z
2023-12-23T00:19:10Z,42.805,6.029,13.3068,4.60154,2470.614,2023-12-23T02:21:41Z
2023-12-23T00:22:13Z,42.805,6.029,13.3059,4.60175,2470.614,2023-12-23T02:24:44Z
2023-12-23T00:25:16Z,42.805,6.029,13.3062,4.60197,2470.577,2023-12-23T02:27:47Z
2023-12-23T00:28:20Z,42.805,6.029,13.3069,4.60165,2470.614,2023-12-23T02:30:50Z
2023-12-23T00:31:23Z,42.805,6.029,13.3067,4.60173,2470.624,2023-12-23T02:33:53Z
2023-12-23T00:34:26Z,42.805,6.029,13.3051,4.60205,2470.6,2023-12-23T02:36:56Z
2023-12-23T00:37:29Z,42.805,6.029,13.3043,4.60170,2470.586,2023-12-23T02:39:59Z
2023-12-23T00:40:32Z,42.805,6.029,13.3070,4.60208,2470.624,2023-12-23T02:43:02Z
2023-12-23T00:43:35Z,42.805,6.029,13.3081,4.60194,2470.6,2023-12-23T02:46:05Z
2023-12-23T00:46:38Z,42.805,6.029,13.3073,4.60241,2470.6,2023-12-23T02:49:08Z
2023-12-23T00:49:41Z,42.805,6.029,13.3089,4.60187,2470.614,2023-12-23T02:52:11Z
2023-12-23T00:52:44Z,42.805,6.029,13.3067,4.60157,2470.614,2023-12-23T02:55:15Z
2023-12-23T00:55:47Z,42.805,6.029,13.3046,4.60169,2470.637,2023-12-23T02:58:18Z
2023-12-23T00:58:50Z,42.805,6.029,13.3070,4.60190,2470.646,2023-12-23T03:01:21Z
2023-12-23T01:01:53Z,42.805,6.029,13.3076,4.60172,2470.6,2023-12-23T03:04:24Z
2023-12-23T01:04:56Z,42.805,6.029,13.3069,4.60176,2470.637,2023-12-23T03:07:27Z
2023-12-23T01:08:00Z,42.805,6.029,13.3084,4.60185,2470.6,2023-12-23T03:10:30Z
2023-12-23T01:11:03Z,42.805,6.029,13.3058,4.60188,2470.661,2023-12-23T03:13:33Z
2023-12-23T01:14:06Z,42.805,6.029,13.3058,4.60185,2470.637,2023-12-23T03:16:36Z
2023-12-23T01:17:09Z,42.805,6.029,13.3047,4.60168,2470.646,2023-12-23T03:19:39Z
2023-12-23T01:20:12Z,42.805,6.029,13.3065,4.60193,2470.61,2023-12-23T03:22:42Z
2023-12-23T01:23:15Z,42.805,6.029,13.3078,4.60223,2470.661,2023-12-23T03:25:45Z
2023-12-23T01:26:18Z,42.805,6.029,13.3110,4.60220,2470.67,2023-12-23T03:28:49Z
2023-12-23T01:29:21Z,42.805,6.029,13.3109,4.60173,2470.661,2023-12-23T03:31:52Z
2023-12-23T01:32:24Z,42.805,6.029,13.3100,4.60233,2470.684,2023-12-23T03:34:55Z
2023-12-23T01:35:27Z,42.805,6.029,13.3118,4.60184,2470.661,2023-12-23T03:37:58Z
2023-12-23T01:38:30Z,42.805,6.029,13.3114,4.60196,2470.661,2023-12-23T03:41:01Z
2023-12-23T01:41:34Z,42.805,6.029,13.3051,4.60187,2470.661,2023-12-23T03:44:04Z
2023-12-23T01:44:37Z,42.805,6.029,13.3084,4.60190,2470.684,2023-12-23T03:47:07Z
2023-12-23T01:47:40Z,42.805,6.029,13.3078,4.60201,2470.67,2023-12-23T03:50:10Z
2023-12-23T01:50:43Z,42.805,6.029,13.3089,4.60180,2470.684,2023-12-23T03:53:13Z
2023-12-23T01:53:46Z,42.805,6.029,13.3096,4.60210,2470.684,2023-12-23T03:56:16Z
2023-12-23T01:56:49Z,42.805,6.029,13.3097,4.60205,2470.67,2023-12-23T03:59:19Z
2023-12-23T01:59:52Z,42.805,6.029,13.3096,4.60223,2470.67,2023-12-23T04:02:22Z
2023-12-23T02:02:55Z,42.805,6.029,13.3094,4.60238,2470.693,2023-12-23T04:05:26Z
2023-12-23T02:05:58Z,42.805,6.029,13.3116,4.60194,2470.661,2023-12-23T04:08:29Z
2023-12-23T02:09:01Z,42.805,6.029,13.3065,4.60176,2470.661,2023-12-23T04:11:32Z
2023-12-23T02:12:04Z,42.805,6.029,13.3090,4.60190,2470.67,2023-12-23T04:14:35Z
2023-12-23T02:15:07Z,42.805,6.029,13.3069,4.60171,2470.707,2023-12-23T04:17:38Z
2023-12-23T02:18:11Z,42.805,6.029,13.3085,4.60203,2470.684,2023-12-23T04:20:41Z
2023-12-23T02:21:14Z,42.805,6.029,13.3084,4.60174,2470.693,2023-12-23T04:23:44Z
2023-12-23T02:24:17Z,42.805,6.029,13.3086,4.60228,2470.693,2023-12-23T04:26:47Z
2023-12-23T02:27:20Z,42.805,6.029,13.3103,4.60184,2470.684,2023-12-23T04:29:50Z
2023-12-23T02:30:23Z,42.805,6.029,13.3078,4.60165,2470.684,2023-12-23T04:32:53Z
2023-12-23T02:33:26Z,42.805,6.029,13.3093,4.60161,2470.67,2023-12-23T04:35:56Z
2023-12-23T02:36:29Z,42.805,6.029,13.3092,4.60188,2470.693,2023-12-23T04:39:00Z
2023-12-23T02:39:32Z,42.805,6.029,13.3054,4.60197,2470.67,2023-12-23T04:42:03Z
2023-12-23T02:42:35Z,42.805,6.029,13.3052,4.60188,2470.707,2023-12-23T04:45:06Z
2023-12-23T02:45:38Z,42.805,6.029,13.3063,4.60226,2470.73,2023-12-23T04:48:09Z
2023-12-23T02:48:41Z,42.805,6.029,13.3065,4.60193,2470.73,2023-12-23T04:51:12Z
2023-12-23T02:51:44Z,42.805,6.029,13.3094,4.60147,2470.67,2023-12-23T04:54:15Z
2023-12-23T02:54:48Z,42.805,6.029,13.3096,4.60180,2470.717,2023-12-23T04:57:18Z
2023-12-23T02:57:51Z,42.805,6.029,13.3088,4.60178,2470.73,2023-12-23T05:00:21Z
2023-12-23T03:00:54Z,42.805,6.029,13.3067,4.60182,2470.717,2023-12-23T05:03:24Z
2023-12-23T03:03:57Z,42.805,6.029,13.3062,4.60227,2470.693,2023-12-23T05:06:27Z
2023-12-23T03:07:00Z,42.805,6.029,13.3058,4.60184,2470.73,2023-12-23T05:09:30Z
2023-12-23T03:10:03Z,42.805,6.029,13.3082,4.60214,2470.693,2023-12-23T05:12:33Z
2023-12-23T03:13:06Z,42.805,6.029,13.3076,4.60193,2470.717,2023-12-23T05:15:37Z
2023-12-23T03:16:09Z,42.805,6.029,13.3065,4.60179,2470.754,2023-12-23T05:18:40Z
2023-12-23T03:19:12Z,42.805,6.029,13.3045,4.60187,2470.754,2023-12-23T05:21:43Z
2023-12-23T03:22:15Z,42.805,6.029,13.3046,4.60195,2470.717,2023-12-23T05:24:46Z
2023-12-23T03:25:18Z,42.805,6.029,13.3046,4.60173,2470.754,2023-12-23T05:27:49Z
2023-12-23T03:28:22Z,42.805,6.029,13.3045,4.60192,2470.74,2023-12-23T05:30:52Z
2023-12-23T03:31:25Z,42.805,6.029,13.3063,4.60183,2470.717,2023-12-23T05:33:55Z
2023-12-23T03:34:28Z,42.805,6.029,13.3051,4.60210,2470.717,2023-12-23T05:36:58Z
2023-12-23T03:37:31Z,42.805,6.029,13.3047,4.60193,2470.67,2023-12-23T05:40:01Z
2023-12-23T03:40:34Z,42.805,6.029,13.3051,4.60179,2470.717,2023-12-23T05:43:04Z
2023-12-23T03:43:37Z,42.805,6.029,13.3059,4.60196,2470.717,2023-12-23T05:46:07Z
2023-12-23T03:46:40Z,42.805,6.029,13.3058,4.60205,2470.754,2023-12-23T05:49:10Z
2023-12-23T03:49:43Z,42.805,6.029,13.3046,4.60198,2470.75,2023-12-23T05:52:14Z
2023-12-23T03:52:46Z,42.805,6.029,13.3048,4.60164,2470.717,2023-12-23T05:55:17Z
2023-12-23T03:55:49Z,42.805,6.029,13.3046,4.60193,2470.693,2023-12-23T05:58:20Z
2023-12-23T03:58:52Z,42.805,6.029,13.3056,4.60158,2470.74,2023-12-23T06:01:23Z
2023-12-23T04:01:55Z,42.805,6.029,13.3051,4.60189,2470.74,2023-12-23T06:04:26Z
2023-12-23T04:04:59Z,42.805,6.029,13.3046,4.60190,2470.74,2023-12-23T06:07:29Z
2023-12-23T04:08:02Z,42.805,6.029,13.3054,4.60175,2470.73,2023-12-23T06:10:32Z
2023-12-23T04:11:05Z,42.805,6.029,13.3068,4.60162,2470.754,2023-12-23T06:13:35Z
2023-12-23T04:14:08Z,42.805,6.029,13.3050,4.60188,2470.717,2023-12-23T06:16:38Z
2023-12-23T04:17:11Z,42.805,6.029,13.3069,4.60191,2470.763,2023-12-23T06:19:41Z
2023-12-23T04:20:14Z,42.805,6.029,13.3063,4.60152,2470.754,2023-12-23T06:22:44Z
2023-12-23T04:23:17Z,42.805,6.029,13.3053,4.60148,2470.777,2023-12-23T06:25:47Z
2023-12-23T04:26:20Z,42.805,6.029,13.3058,4.60165,2470.74,2023-12-23T06:28:51Z
2023-12-23T04:29:23Z,42.805,6.029,13.3050,4.60175,2470.717,2023-12-23T06:31:54Z
2023-12-23T04:32:26Z,42.805,6.029,13.3064,4.60204,2470.763,2023-12-23T06:34:57Z
2023-12-23T04:35:29Z,42.805,6.029,13.3067,4.60198,2470.74,2023-12-23T06:38:00Z
2023-12-23T04:38:32Z,42.805,6.029,13.3069,4.60219,2470.707,2023-12-23T06:41:03Z
2023-12-23T04:41:36Z,42.805,6.029,13.3048,4.60193,2470.73,2023-12-23T06:44:06Z
2023-12-23T04:44:39Z,42.805,6.029,13.3055,4.60180,2470.73,2023-12-23T06:47:09Z
2023-12-23T04:47:42Z,42.805,6.029,13.3061,4.60194,2470.74,2023-12-23T06:50:12Z
2023-12-23T04:50:45Z,42.805,6.029,13.3064,4.60213,2470.754,2023-12-23T06:53:15Z
2023-12-23T04:53:48Z,42.805,6.029,13.3047,4.60202,2470.74,2023-12-23T06:56:18Z
2023-12-23T04:56:51Z,42.805,6.029,13.3063,4.60195,2470.763,2023-12-23T06:59:21Z
2023-12-23T04:59:54Z,42.805,6.029,13.3064,4.60195,2470.74,2023-12-23T07:02:24Z
2023-12-23T05:02:57Z,42.805,6.029,13.3048,4.60202,2470.754,2023-12-23T07:05:28Z
2023-12-23T05:06:00Z,42.805,6.029,13.3050,4.60183,2470.74,2023-12-23T07:08:31Z
2023-12-23T05:09:03Z,42.805,6.029,13.3061,4.60200,2470.74,2023-12-23T07:11:34Z
2023-12-23T05:12:06Z,42.805,6.029,13.3049,4.60203,2470.763,2023-12-23T07:14:37Z
2023-12-23T05:15:09Z,42.805,6.029,13.3054,4.60191,2470.693,2023-12-23T07:17:40Z
2023-12-23T05:18:13Z,42.805,6.029,13.3072,4.60200,2470.73,2023-12-23T07:20:43Z
2023-12-23T05:21:16Z,42.805,6.029,13.3070,4.60208,2470.754,2023-12-23T07:23:46Z
2023-12-23T05:24:19Z,42.805,6.029,13.3063,4.60221,2470.74,2023-12-23T07:26:49Z
2023-12-23T05:27:22Z,42.805,6.029,13.3063,4.60169,2470.754,2023-12-23T07:29:52Z
2023-12-23T05:30:23Z,42.805,6.029,13.3063,4.60192,2470.754,2023-12-23T07:32:53Z
2023-12-23T05:33:26Z,42.805,6.029,13.3060,4.60202,2470.74,2023-12-23T07:35:56Z
2023-12-23T05:36:29Z,42.805,6.029,13.3063,4.60148,2470.763,2023-12-23T07:38:59Z
2023-12-23T05:39:32Z,42.805,6.029,13.3068,4.60197,2470.754,2023-12-23T07:42:03Z
2023-12-23T05:42:35Z,42.805,6.029,13.3073,4.60154,2470.777,2023-12-23T07:45:06Z
2023-12-23T05:45:38Z,42.805,6.029,13.3088,4.60203,2470.74,2023-12-23T07:48:09Z
2023-12-23T05:48:41Z,42.805,6.029,13.3078,4.60183,2470.693,2023-12-23T07:51:12Z
2023-12-23T05:51:44Z,42.805,6.029,13.3067,4.60192,2470.73,2023-12-23T07:54:15Z
2023-12-23T05:54:48Z,42.805,6.029,13.3069,4.60173,2470.74,2023-12-23T07:57:18Z
2023-12-23T05:57:51Z,42.805,6.029,13.3072,4.60180,2470.717,2023-12-23T08:00:21Z
2023-12-23T06:00:54Z,42.805,6.029,13.3072,4.60167,2470.74,2023-12-23T08:03:24Z
2023-12-23T06:03:57Z,42.805,6.029,13.3080,4.60180,2470.73,2023-12-23T08:06:27Z
2023-12-23T06:07:00Z,42.805,6.029,13.3079,4.60152,2470.74,2023-12-23T08:09:30Z
2023-12-23T06:10:03Z,42.805,6.029,13.3074,4.60142,2470.707,2023-12-23T08:12:33Z
2023-12-23T06:13:06Z,42.805,6.029,13.3067,4.60144,2470.74,2023-12-23T08:15:36Z
2023-12-23T06:16:09Z,42.805,6.029,13.3063,4.60177,2470.73,2023-12-23T08:18:40Z
2023-12-23T06:19:12Z,42.805,6.029,13.3050,4.60161,2470.703,2023-12-23T08:21:43Z
2023-12-23T06:22:15Z,42.805,6.029,13.3056,4.60188,2470.717,2023-12-23T08:24:46Z
2023-12-23T06:25:18Z,42.805,6.029,13.3060,4.60165,2470.74,2023-12-23T08:27:49Z
2023-12-23T06:28:21Z,42.805,6.029,13.3054,4.60195,2470.754,2023-12-23T08:30:52Z
2023-12-23T06:31:25Z,42.805,6.029,13.3056,4.60184,2470.777,2023-12-23T08:33:55Z
2023-12-23T06:34:28Z,42.805,6.029,13.3055,4.60173,2470.754,2023-12-23T08:36:58Z
2023-12-23T06:37:31Z,42.805,6.029,13.3055,4.60173,2470.754,2023-12-23T08:40:01Z
2023-12-23T06:40:34Z,42.805,6.029,13.3051,4.60164,2470.717,2023-12-23T08:43:04Z
2023-12-23T06:43:37Z,42.805,6.029,13.3068,4.60198,2470.74,2023-12-23T08:46:07Z
2023-12-23T06:46:40Z,42.805,6.029,13.3062,4.60140,2470.707,2023-12-23T08:49:10Z
2023-12-23T06:49:43Z,42.805,6.029,13.3056,4.60182,2470.74,2023-12-23T08:52:13Z
2023-12-23T06:52:46Z,42.805,6.029,13.3058,4.60142,2470.717,2023-12-23T08:55:17Z
2023-12-23T06:55:49Z,42.805,6.029,13.3054,4.60137,2470.717,2023-12-23T08:58:20Z
2023-12-23T06:58:52Z,42.805,6.029,13.3063,4.60180,2470.717,2023-12-23T09:01:23Z
2023-12-23T07:01:55Z,42.805,6.029,13.3063,4.60181,2470.74,2023-12-23T09:04:26Z
2023-12-23T07:04:58Z,42.805,6.029,13.3061,4.60190,2470.717,2023-12-23T09:07:29Z
2023-12-23T07:08:02Z,42.805,6.029,13.3077,4.60163,2470.74,2023-12-23T09:10:32Z
2023-12-23T07:11:05Z,42.805,6.029,13.3068,4.60141,2470.777,2023-12-23T09:13:35Z
2023-12-23T07:14:08Z,42.805,6.029,13.3061,4.60147,2470.717,2023-12-23T09:16:38Z
2023-12-23T07:17:11Z,42.805,6.029,13.3071,4.60176,2470.717,2023-12-23T09:19:41Z
2023-12-23T07:20:14Z,42.805,6.029,13.3054,4.60191,2470.754,2023-12-23T09:22:44Z
2023-12-23T07:23:17Z,42.805,6.029,13.3062,4.60150,2470.74,2023-12-23T09:25:47Z
2023-12-23T07:26:20Z,42.805,6.029,13.3057,4.60157,2470.717,2023-12-23T09:28:50Z
2023-12-23T07:29:23Z,42.805,6.029,13.3056,4.60167,2470.754,2023-12-23T09:31:54Z
2023-12-23T07:32:26Z,42.805,6.029,13.3067,4.60172,2470.73,2023-12-23T09:34:57Z
2023-12-23T07:35:29Z,42.805,6.029,13.3071,4.60190,2470.74,2023-12-23T09:38:00Z
2023-12-23T07:38:32Z,42.805,6.029,13.3056,4.60173,2470.717,2023-12-23T09:41:03Z
2023-12-23T07:41:35Z,42.805,6.029,13.3060,4.60144,2470.73,2023-12-23T09:44:06Z
2023-12-23T07:44:39Z,42.805,6.029,13.3054,4.60164,2470.754,2023-12-23T09:47:09Z
2023-12-23T07:47:42Z,42.805,6.029,13.3068,4.60174,2470.684,2023-12-23T09:50:12Z
2023-12-23T07:50:45Z,42.805,6.029,13.3071,4.60166,2470.717,2023-12-23T09:53:15Z
2023-12-23T07:53:48Z,42.805,6.029,13.3074,4.60203,2470.707,2023-12-23T09:56:18Z
2023-12-23T07:56:51Z,42.805,6.029,13.3061,4.60193,2470.74,2023-12-23T09:59:21Z
2023-12-23T07:59:54Z,42.805,6.029,13.3057,4.60193,2470.73,2023-12-23T10:02:24Z
2023-12-23T08:02:57Z,42.805,6.029,13.3054,4.60198,2470.717,2023-12-23T10:05:28Z
2023-12-23T08:06:00Z,42.805,6.029,13.3054,4.60200,2470.73,2023-12-23T10:08:31Z
2023-12-23T08:09:03Z,42.805,6.029,13.3067,4.60195,2470.717,2023-12-23T10:11:34Z
2023-12-23T08:12:06Z,42.805,6.029,13.3071,4.60167,2470.717,2023-12-23T10:14:37Z
2023-12-23T08:15:09Z,42.805,6.029,13.3061,4.60144,2470.717,2023-12-23T10:17:40Z
2023-12-23T08:18:13Z,42.805,6.029,13.3051,4.60189,2470.67,2023-12-23T10:20:43Z
2023-12-23T08:21:16Z,42.805,6.029,13.3061,4.60210,2470.707,2023-12-23T10:23:46Z
2023-12-23T08:24:19Z,42.805,6.029,13.3060,4.60187,2470.67,2023-12-23T10:26:49Z
2023-12-23T08:27:22Z,42.805,6.029,13.3060,4.60194,2470.73,2023-12-23T10:29:52Z
2023-12-23T08:30:25Z,42.805,6.029,13.3069,4.60174,2470.693,2023-12-23T10:32:55Z
2023-12-23T08:33:28Z,42.805,6.029,13.3069,4.60178,2470.693,2023-12-23T10:35:58Z
2023-12-23T08:36:31Z,42.805,6.029,13.3054,4.60167,2470.717,2023-12-23T10:39:02Z
2023-12-23T08:39:34Z,42.805,6.029,13.3056,4.60184,2470.717,2023-12-23T10:42:05Z
2023-12-23T08:42:37Z,42.805,6.029,13.3051,4.60167,2470.693,2023-12-23T10:45:08Z
2023-12-23T08:45:40Z,42.805,6.029,13.3062,4.60175,2470.684,2023-12-23T10:48:11Z
2023-12-23T08:48:43Z,42.805,6.029,13.3068,4.60176,2470.717,2023-12-23T10:51:14Z
2023-12-23T08:51:46Z,42.805,6.029,13.3051,4.60175,2470.684,2023-12-23T10:54:17Z
2023-12-23T08:54:50Z,42.805,6.029,13.3051,4.60170,2470.693,2023-12-23T10:57:20Z
2023-12-23T08:57:53Z,42.805,6.029,13.3057,4.60165,2470.67,2023-12-23T11:00:23Z
2023-12-23T09:00:56Z,42.805,6.029,13.3054,4.60132,2470.67,2023-12-23T11:03:26Z
2023-12-23T09:03:59Z,42.805,6.029,13.3064,4.60151,2470.707,2023-12-23T11:06:29Z
2023-12-23T09:07:02Z,42.805,6.029,13.3057,4.60162,2470.693,2023-12-23T11:09:32Z
2023-12-23T09:10:05Z,42.805,6.029,13.3061,4.60167,2470.67,2023-12-23T11:12:35Z
2023-12-23T09:13:08Z,42.805,6.029,13.3057,4.60173,2470.684,2023-12-23T11:15:39Z
2023-12-23T09:16:11Z,42.805,6.029,13.3064,4.60162,2470.73,2023-12-23T11:18:42Z
2023-12-23T09:19:14Z,42.805,6.029,13.3059,4.60142,2470.707,2023-12-23T11:21:45Z
2023-12-23T09:22:17Z,42.805,6.029,13.3076,4.60137,2470.707,2023-12-23T11:24:48Z
2023-12-23T09:25:20Z,42.805,6.029,13.3054,4.60140,2470.717,2023-12-23T11:27:51Z
2023-12-23T09:28:24Z,42.805,6.029,13.3060,4.60144,2470.693,2023-12-23T11:30:54Z
2023-12-23T09:31:27Z,42.805,6.029,13.3056,4.60120,2470.67,2023-12-23T11:33:57Z
2023-12-23T09:34:30Z,42.805,6.029,13.3051,4.60126,2470.684,2023-12-23T11:37:00Z
2023-12-23T09:37:33Z,42.805,6.029,13.3069,4.60129,2470.684,2023-12-23T11:40:03Z
2023-12-23T09:40:36Z,42.805,6.029,13.3056,4.60149,2470.646,2023-12-23T11:43:06Z
2023-12-23T09:43:39Z,42.805,6.029,13.3056,4.60173,2470.684,2023-12-23T11:46:09Z
2023-12-23T09:46:42Z,42.805,6.029,13.3061,4.60168,2470.693,2023-12-23T11:49:12Z
2023-12-23T09:49:45Z,42.805,6.029,13.3067,4.60139,2470.693,2023-12-23T11:52:16Z
2023-12-23T09:52:48Z,42.805,6.029,13.3063,4.60140,2470.646,2023-12-23T11:55:19Z
2023-12-23T09:55:51Z,42.805,6.029,13.3060,4.60161,2470.67,2023-12-23T11:58:22Z
2023-12-23T09:58:54Z,42.805,6.029,13.3067,4.60147,2470.693,2023-12-23T12:01:25Z
2023-12-23T10:01:57Z,42.805,6.029,13.3062,4.60137,2470.646,2023-12-23T12:04:28Z
2023-12-23T10:05:00Z,42.805,6.029,13.3060,4.60132,2470.707,2023-12-23T12:07:31Z
2023-12-23T10:08:04Z,42.805,6.029,13.3058,4.60128,2470.67,2023-12-23T12:10:34Z
2023-12-23T10:11:07Z,42.805,6.029,13.3046,4.60133,2470.67,2023-12-23T12:13:37Z
2023-12-23T10:14:10Z,42.805,6.029,13.3056,4.60141,2470.67,2023-12-23T12:16:40Z
2023-12-23T10:17:13Z,42.805,6.029,13.3056,4.60155,2470.646,2023-12-23T12:19:43Z
2023-12-23T10:20:16Z,42.805,6.029,13.3058,4.60162,2470.646,2023-12-23T12:22:46Z
2023-12-23T10:23:19Z,42.805,6.029,13.3043,4.60127,2470.684,2023-12-23T12:25:50Z
2023-12-23T10:26:22Z,42.805,6.029,13.3060,4.60127,2470.684,2023-12-23T12:28:53Z
2023-12-23T10:29:25Z,42.805,6.029,13.3057,4.60139,2470.67,2023-12-23T12:31:56Z
2023-12-23T10:32:28Z,42.805,6.029,13.3059,4.60165,2470.684,2023-12-23T12:34:59Z
2023-12-23T10:35:31Z,42.805,6.029,13.3048,4.60150,2470.67,2023-12-23T12:38:02Z
2023-12-23T10:38:35Z,42.805,6.029,13.3044,4.60166,2470.684,2023-12-23T12:41:05Z
2023-12-23T10:41:38Z,42.805,6.029,13.3063,4.60152,2470.693,2023-12-23T12:44:08Z
2023-12-23T10:44:41Z,42.805,6.029,13.3058,4.60150,2470.646,2023-12-23T12:47:11Z
2023-12-23T10:47:44Z,42.805,6.029,13.3061,4.60152,2470.624,2023-12-23T12:50:14Z
2023-12-23T10:50:47Z,42.805,6.029,13.3062,4.60149,2470.67,2023-12-23T12:53:17Z
2023-12-23T10:53:50Z,42.805,6.029,13.3049,4.60154,2470.646,2023-12-23T12:56:20Z
2023-12-23T10:56:53Z,42.805,6.029,13.3047,4.60142,2470.684,2023-12-23T12:59:23Z
2023-12-23T10:59:56Z,42.805,6.029,13.3044,4.60122,2470.684,2023-12-23T13:02:27Z
2023-12-23T11:02:59Z,42.805,6.029,13.3044,4.60135,2470.67,2023-12-23T13:05:30Z
2023-12-23T11:06:02Z,42.805,6.029,13.3057,4.60179,2470.67,2023-12-23T13:08:33Z
2023-12-23T11:09:05Z,42.805,6.029,13.3056,4.60138,2470.67,2023-12-23T13:11:36Z
2023-12-23T11:12:08Z,42.805,6.029,13.3048,4.60144,2470.646,2023-12-23T13:14:39Z
2023-12-23T11:15:12Z,42.805,6.029,13.3058,4.60126,2470.661,2023-12-23T13:17:42Z
2023-12-23T11:18:15Z,42.805,6.029,13.3059,4.60144,2470.67,2023-12-23T13:20:45Z
2023-12-23T11:21:18Z,42.805,6.029,13.3048,4.60117,2470.646,2023-12-23T13:23:48Z
2023-12-23T11:24:21Z,42.805,6.029,13.3050,4.60133,2470.67,2023-12-23T13:26:51Z
2023-12-23T11:27:24Z,42.805,6.029,13.3060,4.60170,2470.646,2023-12-23T13:29:54Z
2023-12-23T11:30:29Z,42.805,6.029,13.3056,4.60148,2470.67,2023-12-23T13:32:59Z
2023-12-23T11:33:32Z,42.805,6.029,13.3064,4.60152,2470.661,2023-12-23T13:36:02Z
2023-12-23T11:36:35Z,42.805,6.029,13.3057,4.60157,2470.661,2023-12-23T13:39:05Z
2023-12-23T11:39:38Z,42.805,6.029,13.3056,4.60148,2470.67,2023-12-23T13:42:08Z
2023-12-23T11:42:41Z,42.805,6.029,13.3048,4.60137,2470.67,2023-12-23T13:45:11Z
2023-12-23T11:45:44Z,42.805,6.029,13.3062,4.60140,2470.693,2023-12-23T13:48:14Z
2023-12-23T11:48:47Z,42.805,6.029,13.3051,4.60142,2470.693,2023-12-23T13:51:18Z
2023-12-23T11:51:50Z,42.805,6.029,13.3049,4.60167,2470.684,2023-12-23T13:54:21Z
2023-12-23T11:54:53Z,42.805,6.029,13.3053,4.60135,2470.67,2023-12-23T13:57:24Z
2023-12-23T11:57:56Z,42.805,6.029,13.3045,4.60141,2470.637,2023-12-23T14:00:27Z
2023-12-23T12:00:59Z,42.805,6.029,13.3056,4.60145,2470.646,2023-12-23T14:03:30Z
2023-12-23T12:04:02Z,42.805,6.029,13.3042,4.60119,2470.693,2023-12-23T14:06:33Z
2023-12-23T12:07:06Z,42.805,6.029,13.3052,4.60132,2470.67,2023-12-23T14:09:36Z
2023-12-23T12:10:09Z,42.805,6.029,13.3054,4.60133,2470.693,2023-12-23T14:12:39Z
2023-12-23T12:13:12Z,42.805,6.029,13.3057,4.60149,2470.67,2023-12-23T14:15:42Z
2023-12-23T12:16:15Z,42.805,6.029,13.3055,4.60161,2470.684,2023-12-23T14:18:45Z
2023-12-23T12:19:18Z,42.805,6.029,13.3056,4.60134,2470.67,2023-12-23T14:21:48Z
2023-12-23T12:22:21Z,42.805,6.029,13.3058,4.60135,2470.661,2023-12-23T14:24:51Z
2023-12-23T12:25:24Z,42.805,6.029,13.3059,4.60167,2470.707,2023-12-23T14:27:55Z
2023-12-23T12:28:27Z,42.805,6.029,13.3048,4.60167,2470.67,2023-12-23T14:30:58Z
2023-12-23T12:31:30Z,42.805,6.029,13.3062,4.60162,2470.684,2023-12-23T14:34:01Z
2023-12-23T12:34:33Z,42.805,6.029,13.3059,4.60145,2470.693,2023-12-23T14:37:04Z
2023-12-23T12:37:36Z,42.805,6.029,13.3061,4.60161,2470.67,2023-12-23T14:40:07Z
2023-12-23T12:40:40Z,42.805,6.029,13.3056,4.60160,2470.684,2023-12-23T14:43:10Z
2023-12-23T12:43:43Z,42.805,6.029,13.3047,4.60142,2470.684,2023-12-23T14:46:13Z
2023-12-23T12:46:46Z,42.805,6.029,13.3050,4.60165,2470.67,2023-12-23T14:49:16Z
2023-12-23T12:49:49Z,42.805,6.029,13.3054,4.60160,2470.693,2023-12-23T14:52:19Z
2023-12-23T12:52:52Z,42.805,6.029,13.3054,4.60157,2470.693,2023-12-23T14:55:22Z
2023-12-23T12:55:55Z,42.805,6.029,13.3049,4.60160,2470.684,2023-12-23T14:58:25Z
2023-12-23T12:58:58Z,42.805,6.029,13.3056,4.60150,2470.717,2023-12-23T15:01:29Z
2023-12-23T13:02:01Z,42.805,6.029,13.3051,4.60150,2470.67,2023-12-23T15:04:32Z
2023-12-23T13:05:04Z,42.805,6.029,13.3054,4.60152,2470.717,2023-12-23T15:07:35Z
2023-12-23T13:08:07Z,42.805,6.029,13.3054,4.60143,2470.693,2023-12-23T15:10:38Z
2023-12-23T13:11:10Z,42.805,6.029,13.3050,4.60147,2470.717,2023-12-23T15:13:41Z
2023-12-23T13:14:13Z,42.805,6.029,13.3047,4.60165,2470.693,2023-12-23T15:16:44Z
2023-12-23T13:17:17Z,42.805,6.029,13.3044,4.60151,2470.684,2023-12-23T15:19:47Z
2023-12-23T13:20:20Z,42.805,6.029,13.3054,4.60144,2470.73,2023-12-23T15:22:50Z
2023-12-23T13:23:23Z,42.805,6.029,13.3052,4.60162,2470.693,2023-12-23T15:25:53Z
2023-12-23T13:26:26Z,42.805,6.029,13.3046,4.60140,2470.717,2023-12-23T15:28:56Z
2023-12-23T13:29:29Z,42.805,6.029,13.3047,4.60135,2470.707,2023-12-23T15:31:59Z
2023-12-23T13:32:32Z,42.805,6.029,13.3062,4.60146,2470.73,2023-12-23T15:35:02Z
2023-12-23T13:35:35Z,42.805,6.029,13.3048,4.60136,2470.73,2023-12-23T15:38:06Z
2023-12-23T13:38:38Z,42.805,6.029,13.3042,4.60131,2470.693,2023-12-23T15:41:09Z
2023-12-23T13:41:41Z,42.805,6.029,13.3048,4.60127,2470.754,2023-12-23T15:44:12Z
2023-12-23T13:44:44Z,42.805,6.029,13.3040,4.60130,2470.693,2023-12-23T15:47:15Z
2023-12-23T13:47:47Z,42.805,6.029,13.3043,4.60131,2470.717,2023-12-23T15:50:18Z
2023-12-23T13:50:51Z,42.805,6.029,13.3040,4.60131,2470.707,2023-12-23T15:53:21Z
2023-12-23T13:53:54Z,42.805,6.029,13.3043,4.60134,2470.754,2023-12-23T15:56:24Z
2023-12-23T13:56:57Z,42.805,6.029,13.3044,4.60137,2470.74,2023-12-23T15:59:27Z
2023-12-23T14:00:00Z,42.805,6.029,13.3049,4.60159,2470.707,2023-12-23T16:02:30Z
2023-12-23T14:03:03Z,42.805,6.029,13.3053,4.60146,2470.74,2023-12-23T16:05:33Z
2023-12-23T14:06:06Z,42.805,6.029,13.3050,4.60149,2470.717,2023-12-23T16:08:36Z
2023-12-23T14:09:09Z,42.805,6.029,13.3043,4.60146,2470.74,2023-12-23T16:11:40Z
2023-12-23T14:12:12Z,42.805,6.029,13.3039,4.60140,2470.768,2023-12-23T16:14:43Z
2023-12-23T14:15:15Z,42.805,6.029,13.3046,4.60147,2470.717,2023-12-23T16:17:46Z
2023-12-23T14:18:18Z,42.805,6.029,13.3040,4.60141,2470.777,2023-12-23T16:20:49Z
2023-12-23T14:21:21Z,42.805,6.029,13.3041,4.60158,2470.726,2023-12-23T16:23:52Z
2023-12-23T14:24:25Z,42.805,6.029,13.3046,4.60180,2470.717,2023-12-23T16:26:55Z
2023-12-23T14:27:28Z,42.805,6.029,13.3054,4.60149,2470.717,2023-12-23T16:29:58Z
2023-12-23T14:30:31Z,42.805,6.029,13.3061,4.60170,2470.763,2023-12-23T16:33:01Z
2023-12-23T14:33:34Z,42.805,6.029,13.3070,4.60164,2470.763,2023-12-23T16:36:04Z
2023-12-23T14:36:37Z,42.805,6.029,13.3070,4.60155,2470.754,2023-12-23T16:39:07Z
2023-12-23T14:39:40Z,42.805,6.029,13.3061,4.60165,2470.74,2023-12-23T16:42:10Z
2023-12-23T14:42:43Z,42.805,6.029,13.3050,4.60176,2470.754,2023-12-23T16:45:14Z
2023-12-23T14:45:46Z,42.805,6.029,13.3058,4.60188,2470.777,2023-12-23T16:48:17Z
2023-12-23T14:48:49Z,42.805,6.029,13.3061,4.60175,2470.763,2023-12-23T16:51:20Z
2023-12-23T14:51:52Z,42.805,6.029,13.3053,4.60163,2470.763,2023-12-23T16:54:23Z
2023-12-23T14:54:55Z,42.805,6.029,13.3061,4.60185,2470.763,2023-12-23T16:57:26Z
2023-12-23T14:57:58Z,42.805,6.029,13.3070,4.60188,2470.8,2023-12-23T17:00:29Z
2023-12-23T15:01:02Z,42.805,6.029,13.3046,4.60161,2470.787,2023-12-23T17:03:32Z